{"data":{"norad_id":54777,"epoch":"2026-05-25T03:25:00.105312Z","epoch_age_seconds":62889,"freshness":"FRESH","line1":"1 54777U 22175V   26145.14236233 -.00001502  00000+0 -76276-4 0  9990","line2":"2 54777  53.2136  60.7083 0001524  93.1500 266.9667 15.08848750191465","mean_motion":15.0884875,"eccentricity":0.0001524,"inclination_deg":53.2136,"raan_deg":60.7083,"arg_perigee_deg":93.15,"mean_anomaly_deg":266.9667,"bstar":-7.6276e-5,"rev_number":19146,"period_min":95.437001223615,"perigee_km":538.66236294852,"apogee_km":540.77092473917,"semimajor_km":6917.8536438438,"source":"CELESTRAK","updated_at":"2026-05-25T13:38:17.691912Z"}}